EN

Hourly Weather Okupniki

Today, 18 May, Tuesday

Time Temperature Precipitation Wind Pressure Humidity
00:00 +8°C° 2.2 mm 4 mps 720 mmHg 96%
01:00 +8°C° 2.2 mm 4 mps 720 mmHg 95%
02:00 +7°C° 1.6 mm 4 mps 720 mmHg 95%
03:00 +7°C° 1.6 mm 4 mps 720 mmHg 95%
04:00 +7°C° 1.6 mm 4 mps 720 mmHg 95%
05:00 +7°C° 1.1 mm 5 mps 720 mmHg 95%
06:00 +7°C° 1.1 mm 5 mps 721 mmHg 95%
07:00 +7°C° 1.1 mm 5 mps 721 mmHg 96%
08:00 +8°C° 0.3 mm 5 mps 722 mmHg 93%
09:00 +9°C° 0.3 mm 6 mps 722 mmHg 90%
10:00 +9°C° 0.3 mm 6 mps 722 mmHg 87%
11:00 +10°C° 0.2 mm 6 mps 722 mmHg 81%
12:00 +11°C° 0.2 mm 6 mps 722 mmHg 75%
13:00 +14°C° 0.2 mm 7 mps 722 mmHg 69%
14:00 +12°C° 0.1 mm 7 mps 722 mmHg 70%
15:00 +13°C° 0.1 mm 6 mps 722 mmHg 71%
16:00 +13°C° 0.1 mm 6 mps 722 mmHg 73%
17:00 +12°C° 0 mm 5 mps 723 mmHg 76%
18:00 +11°C° 0 mm 4 mps 723 mmHg 79%
19:00 +11°C° 0 mm 4 mps 723 mmHg 83%
20:00 +10°C° 0 mm 3 mps 723 mmHg 86%
21:00 +9°C° 0 mm 3 mps 723 mmHg 90%
22:00 +8°C° 0 mm 3 mps 724 mmHg 93%
23:00 +7°C° 0 mm 3 mps 724 mmHg 94%

Tomorrow, 19 May, Wednesday

Time Temperature Precipitation Wind Pressure Humidity
00:00 +7°C° 0 mm 3 mps 724 mmHg 94%
01:00 +7°C° 0 mm 3 mps 724 mmHg 95%
02:00 +5°C° 0 mm 3 mps 724 mmHg 96%
03:00 +5°C° 0 mm 3 mps 724 mmHg 96%
04:00 +5°C° 0 mm 3 mps 724 mmHg 97%
05:00 +7°C° 0 mm 3 mps 725 mmHg 93%
06:00 +7°C° 0 mm 4 mps 725 mmHg 89%
07:00 +10°C° 0 mm 4 mps 725 mmHg 85%
08:00 +10°C° 0.2 mm 4 mps 725 mmHg 81%
09:00 +11°C° 0.2 mm 4 mps 725 mmHg 77%
10:00 +12°C° 0.2 mm 4 mps 726 mmHg 73%
11:00 +12°C° 0.1 mm 4 mps 725 mmHg 71%
12:00 +12°C° 0.1 mm 4 mps 725 mmHg 69%
13:00 +13°C° 0.1 mm 4 mps 725 mmHg 67%
14:00 +13°C° 0.3 mm 4 mps 725 mmHg 70%
15:00 +12°C° 0.3 mm 4 mps 725 mmHg 73%
16:00 +12°C° 0.3 mm 4 mps 725 mmHg 76%
17:00 +11°C° 0.3 mm 3 mps 725 mmHg 80%
18:00 +10°C° 0.3 mm 3 mps 726 mmHg 84%
19:00 +9°C° 0.3 mm 3 mps 726 mmHg 89%
20:00 +9°C° 0.1 mm 3 mps 726 mmHg 91%
21:00 +8°C° 0.1 mm 3 mps 726 mmHg 93%
22:00 +8°C° 0.1 mm 3 mps 726 mmHg 96%
23:00 +8°C° 0 mm 3 mps 726 mmHg 96%

Day after tomorrow, 20 May, Thursday

Time Temperature Precipitation Wind Pressure Humidity
00:00 +8°C° 0 mm 3 mps 726 mmHg 96%
01:00 +7°C° 0 mm 4 mps 726 mmHg 97%
02:00 +6°C° 0.2 mm 4 mps 726 mmHg 97%
03:00 +6°C° 0.2 mm 4 mps 726 mmHg 97%
04:00 +6°C° 0.2 mm 4 mps 726 mmHg 97%
05:00 +6°C° 0.4 mm 4 mps 727 mmHg 96%
06:00 +6°C° 0.4 mm 4 mps 727 mmHg 95%
07:00 +6°C° 0.4 mm 4 mps 727 mmHg 94%
08:00 +7°C° 0.1 mm 4 mps 728 mmHg 88%
09:00 +8°C° 0.1 mm 4 mps 728 mmHg 83%
10:00 +9°C° 0.1 mm 5 mps 728 mmHg 78%
11:00 +10°C° 0 mm 5 mps 728 mmHg 70%
12:00 +12°C° 0 mm 5 mps 728 mmHg 63%
13:00 +13°C° 0 mm 5 mps 728 mmHg 56%
14:00 +13°C° 0.2 mm 5 mps 728 mmHg 62%
15:00 +12°C° 0.2 mm 5 mps 728 mmHg 68%
16:00 +12°C° 0.2 mm 5 mps 728 mmHg 74%
17:00 +10°C° 0.4 mm 5 mps 728 mmHg 78%
18:00 +10°C° 0.4 mm 4 mps 729 mmHg 83%
19:00 +8°C° 0.4 mm 4 mps 729 mmHg 87%
20:00 +8°C° 0 mm 4 mps 729 mmHg 89%
21:00 +7°C° 0 mm 4 mps 729 mmHg 91%
22:00 +7°C° 0 mm 4 mps 730 mmHg 93%
23:00 +6°C° 0 mm 4 mps 730 mmHg 94%

21 May, Friday

Time Temperature Precipitation Wind Pressure Humidity
00:00 +5°C° 0 mm 3 mps 730 mmHg 95%
01:00 +5°C° 0 mm 3 mps 730 mmHg 95%
02:00 +4°C° 0 mm 3 mps 730 mmHg 95%
03:00 +5°C° 0 mm 2 mps 731 mmHg 95%
04:00 +4°C° 0 mm 2 mps 731 mmHg 96%
05:00 +5°C° 0 mm 2 mps 731 mmHg 91%
06:00 +7°C° 0 mm 3 mps 731 mmHg 86%
07:00 +8°C° 0 mm 3 mps 731 mmHg 81%
08:00 +10°C° 0.1 mm 3 mps 731 mmHg 75%
09:00 +11°C° 0.1 mm 3 mps 731 mmHg 70%
10:00 +12°C° 0.1 mm 4 mps 731 mmHg 65%
11:00 +12°C° 0.1 mm 4 mps 730 mmHg 62%
12:00 +13°C° 0.1 mm 3 mps 730 mmHg 60%
13:00 +13°C° 0.1 mm 3 mps 730 mmHg 57%
14:00 +14°C° 0 mm 3 mps 729 mmHg 57%
15:00 +15°C° 0 mm 2 mps 729 mmHg 58%
16:00 +15°C° 0 mm 2 mps 729 mmHg 58%
17:00 +14°C° 0 mm 2 mps 728 mmHg 62%
18:00 +13°C° 0 mm 1 mps 728 mmHg 66%
19:00 +12°C° 0 mm 1 mps 728 mmHg 70%
20:00 +12°C° 0 mm 2 mps 728 mmHg 73%
21:00 +10°C° 0 mm 2 mps 727 mmHg 76%
22:00 +9°C° 0 mm 2 mps 727 mmHg 78%
23:00 +9°C° 0 mm 2 mps 727 mmHg 78%

22 May, Saturday

Time Temperature Precipitation Wind Pressure Humidity
00:00 +8°C° 0 mm 2 mps 726 mmHg 79%
01:00 +8°C° 0 mm 2 mps 726 mmHg 79%
02:00 +8°C° 0 mm 2 mps 726 mmHg 79%
03:00 +7°C° 0 mm 2 mps 725 mmHg 79%
04:00 +7°C° 0 mm 3 mps 725 mmHg 80%
05:00 +9°C° 0 mm 3 mps 725 mmHg 75%
06:00 +10°C° 0 mm 3 mps 725 mmHg 70%
07:00 +12°C° 0 mm 3 mps 725 mmHg 66%
08:00 +13°C° 0 mm 4 mps 725 mmHg 62%
09:00 +15°C° 0 mm 4 mps 725 mmHg 59%
10:00 +17°C° 0 mm 4 mps 725 mmHg 56%
11:00 +18°C° 0 mm 4 mps 725 mmHg 54%
12:00 +18°C° 0 mm 4 mps 725 mmHg 52%
13:00 +19°C° 0 mm 4 mps 725 mmHg 50%
14:00 +18°C° 0.4 mm 3 mps 724 mmHg 59%
15:00 +16°C° 0.4 mm 3 mps 724 mmHg 69%
16:00 +14°C° 0.4 mm 2 mps 724 mmHg 78%
17:00 +13°C° 0.6 mm 2 mps 724 mmHg 84%
18:00 +11°C° 0.6 mm 3 mps 724 mmHg 89%
19:00 +10°C° 0.6 mm 3 mps 724 mmHg 95%
20:00 +9°C° 0.5 mm 3 mps 725 mmHg 95%
21:00 +9°C° 0.5 mm 3 mps 725 mmHg 95%
22:00 +9°C° 0.5 mm 3 mps 725 mmHg 95%
23:00 +8°C° 0.3 mm 3 mps 725 mmHg 95%

23 May, Sunday

Time Temperature Precipitation Wind Pressure Humidity
00:00 +8°C° 0.3 mm 2 mps 725 mmHg 95%
01:00 +8°C° 0.3 mm 2 mps 725 mmHg 95%
02:00 +7°C° 0 mm 2 mps 725 mmHg 94%
03:00 +6°C° 0 mm 2 mps 725 mmHg 94%
04:00 +6°C° 0 mm 2 mps 725 mmHg 94%
05:00 +7°C° 0 mm 3 mps 725 mmHg 89%
06:00 +8°C° 0 mm 3 mps 726 mmHg 84%
07:00 +10°C° 0 mm 4 mps 726 mmHg 80%
08:00 +11°C° 0 mm 3 mps 726 mmHg 72%
09:00 +13°C° 0 mm 3 mps 726 mmHg 64%
10:00 +15°C° 0 mm 2 mps 726 mmHg 56%
11:00 +16°C° 0 mm 2 mps 726 mmHg 53%
12:00 +17°C° 0 mm 2 mps 726 mmHg 50%
13:00 +18°C° 0 mm 1 mps 726 mmHg 47%
14:00 +17°C° 0 mm 2 mps 726 mmHg 50%
15:00 +17°C° 0 mm 2 mps 726 mmHg 53%
16:00 +16°C° 0 mm 2 mps 726 mmHg 57%
17:00 +15°C° 0.2 mm 2 mps 726 mmHg 65%
18:00 +13°C° 0.2 mm 2 mps 726 mmHg 73%
19:00 +11°C° 0.2 mm 3 mps 727 mmHg 81%
20:00 +12°C° 0 mm 2 mps 727 mmHg 82%
21:00 +10°C° 0 mm 2 mps 727 mmHg 83%
22:00 +10°C° 0 mm 2 mps 728 mmHg 84%
23:00 +10°C° 0.1 mm 2 mps 728 mmHg 86%
Show more

We Need Your Consent

Meteoprog and our Service Providers may store and access personal data such as cookies, device identifiers or other similar technologies on your device and process such data to personalise content and ads, as well as provide social media features and to analyse the traffic.

  • Store and/or access information on your device

    Cookies, device identifiers or other information can be stored or accessed on your device for the purposes indicated above.

  • Personalised ads and content, ad and content measurement, audience insights, and products development

    Ads and content can be personalised based on a profile. More data can be added to better personalise ads and content. Ad and content performance can be measured. Insights about the audience who saw the ads and content can be derived. Such data can be used to develop or improve user’s experience, systems and software.

By clicking ‘I Agree’ you will allow the use of indicated cookies, device identifiers, web beacons or other similar technologies. Your settings can be changed in the browser on your device.

For certain purposes, legitimate interests may be relied on, rather than consent. You can read more about this in our Privacy and Cookie Policy.